QPF
0.08 0.03 0.02 0.04 0.05 0.06 0.05 0.06 0.06 0.05 0.04 0.05 0.05 0.05 0.07 0.08 0.08 0.06 0.05 0.05 0.04 0.05 0.05 0.06 0.08 0.05 0.05 0.05 0.06 0.04 0.04 0.04 0.05 0.04 0.02 0.03 0.03 0.04 0.03 0.04 0.06 0.07 0.08
0.06 0.04 0.04 0.05 0.05 0.04 0.04 0.04 0.04 0.05 0.04 0.05 0.07 0.06 0.07 0.09 0.08 0.06 0.05 0.05 0.05 0.07 0.07 0.09 0.11 0.08 0.06 0.06 0.07 0.05 0.04 0.04 0.04 0.05 0.03 0.02 0.03 0.04 0.05 0.05 0.05 0.09 0.08
0.02 0.04 0.04 0.05 0.06 0.06 0.04 0.04 0.05 0.04 0.04 0.05 0.08 0.08 0.08 0.08 0.09 0.07 0.05 0.05 0.05 0.05 0.06 0.08 0.12 0.14 0.09 0.06 0.07 0.06 0.04 0.03 0.03 0.05 0.07 0.07 0.05 0.04 0.03 0.03 0.04 0.07 0.09
0.03 0.05 0.06 0.05 0.05 0.05 0.04 0.03 0.04 0.05 0.05 0.06 0.08 0.08 0.06 0.06 0.07 0.08 0.06 0.05 0.03 0.03 0.04 0.06 0.14 0.16 0.11 0.08 0.06 0.05 0.04 0.03 0.03 0.06 0.09 0.10 0.07 0.04 0.03 0.03 0.02 0.04 0.08
0.04 0.05 0.04 0.04 0.03 0.04 0.04 0.03 0.04 0.06 0.05 0.05 0.07 0.08 0.08 0.07 0.05 0.05 0.05 0.04 0.04 0.04 0.05 0.09 0.18 0.12 0.08 0.07 0.06 0.04 0.03 0.02 0.03 0.06 0.08 0.11 0.10 0.07 0.04 0.04 0.04 0.05 0.07
0.05 0.04 0.02 0.02 0.01 0.02 0.03 0.04 0.04 0.06 0.08 0.06 0.06 0.07 0.07 0.05 0.04 0.04 0.05 0.05 0.05 0.05 0.07 0.08 0.10 0.08 0.06 0.06 0.04 0.03 0.03 0.04 0.05 0.05 0.08 0.10 0.10 0.08 0.05 0.05 0.05 0.05 0.07
0.04 0.02 0.01 0.01 0.00 0.01 0.02 0.03 0.03 0.06 0.08 0.06 0.05 0.06 0.05 0.04 0.04 0.04 0.04 0.04 0.05 0.05 0.06 0.07 0.07 0.05 0.04 0.04 0.04 0.04 0.03 0.06 0.07 0.06 0.08 0.09 0.09 0.06 0.05 0.06 0.06 0.05 0.07
0.04 0.03 0.01 0.01 0.00 0.01 0.01 0.02 0.05 0.07 0.08 0.07 0.05 0.06 0.06 0.05 0.04 0.04 0.04 0.03 0.04 0.05 0.06 0.06 0.06 0.06 0.05 0.04 0.03 0.04 0.05 0.05 0.05 0.06 0.09 0.09 0.07 0.05 0.05 0.05 0.04 0.05 0.07
0.03 0.04 0.03 0.02 0.01 0.02 0.01 0.02 0.04 0.06 0.06 0.05 0.05 0.05 0.06 0.06 0.06 0.05 0.04 0.03 0.04 0.04 0.06 0.06 0.07 0.05 0.04 0.04 0.03 0.04 0.04 0.05 0.07 0.08 0.07 0.08 0.07 0.05 0.05 0.06 0.05 0.04 0.04
0.03 0.03 0.02 0.01 0.01 0.02 0.02 0.02 0.04 0.05 0.04 0.04 0.05 0.06 0.06 0.06 0.05 0.05 0.03 0.04 0.05 0.05 0.06 0.06 0.07 0.05 0.04 0.03 0.04 0.05 0.05 0.07 0.07 0.08 0.09 0.08 0.07 0.07 0.06 0.06 0.06 0.05 0.04
0.04 0.03 0.01 0.00 0.01 0.02 0.02 0.02 0.04 0.05 0.04 0.05 0.05 0.06 0.07 0.07 0.04 0.03 0.03 0.04 0.04 0.05 0.06 0.08 0.07 0.06 0.05 0.04 0.05 0.05 0.06 0.06 0.07 0.09 0.11 0.10 0.09 0.07 0.07 0.07 0.07 0.06 0.03
0.04 0.02 0.02 0.01 0.01 0.01 0.02 0.02 0.03 0.04 0.05 0.04 0.04 0.04 0.03 0.03 0.02 0.03 0.04 0.05 0.04 0.04 0.06 0.09 0.07 0.06 0.05 0.04 0.05 0.05 0.07 0.07 0.07 0.08 0.08 0.09 0.08 0.08 0.06 0.06 0.07 0.04 0.03
0.03 0.03 0.03 0.02 0.02 0.02 0.02 0.02 0.03 0.03 0.03 0.03 0.03 0.02 0.02 0.01 0.01 0.02 0.02 0.04 0.04 0.06 0.08 0.07 0.05 0.05 0.05 0.04 0.07 0.08 0.08 0.08 0.07 0.05 0.05 0.06 0.06 0.08 0.05 0.04 0.05 0.05 0.04
0.02 0.03 0.03 0.03 0.03 0.02 0.01 0.02 0.02 0.03 0.02 0.02 0.02 0.01 0.01 0.01 0.01 0.00 0.01 0.02 0.03 0.05 0.07 0.05 0.04 0.04 0.04 0.04 0.05 0.06 0.05 0.05 0.04 0.02 0.03 0.04 0.06 0.08 0.07 0.05 0.05 0.05 0.07
0.02 0.03 0.04 0.04 0.03 0.02 0.02 0.02 0.01 0.03 0.02 0.01 0.01 0.00 0.00 0.01 0.01 0.01 0.01 0.01 0.01 0.02 0.04 0.04 0.04 0.04 0.05 0.05 0.03 0.02 0.02 0.03 0.03 0.01 0.02 0.03 0.05 0.08 0.10 0.12 0.09 0.06 0.08
0.01 0.03 0.04 0.03 0.02 0.03 0.02 0.01 0.01 0.01 0.01 0.00 0.00 0.00 0.00 0.00 0.01 0.01 0.01 0.02 0.02 0.02 0.03 0.04 0.03 0.03 0.05 0.05 0.02 0.01 0.01 0.03 0.03 0.03 0.03 0.03 0.05 0.07 0.09 0.11 0.08 0.08 0.09
0.01 0.02 0.03 0.03 0.02 0.03 0.03 0.02 0.01 0.00 0.00 0.00 0.00 0.00 0.00 0.00 0.01 0.01 0.01 0.02 0.01 0.01 0.01 0.03 0.03 0.02 0.03 0.03 0.02 0.01 0.01 0.02 0.02 0.02 0.03 0.05 0.06 0.06 0.07 0.08 0.07 0.07 0.07
0.01 0.02 0.02 0.04 0.03 0.03 0.02 0.02 0.01 0.01 0.00 0.00 0.00 0.01 0.01 0.00 0.00 0.01 0.02 0.01 0.01 0.01 0.01 0.02 0.02 0.02 0.03 0.03 0.02 0.01 0.01 0.02 0.02 0.02 0.04 0.04 0.05 0.05 0.04 0.06 0.06 0.04 0.04
0.01 0.01 0.01 0.02 0.01 0.01 0.01 0.01 0.02 0.02 0.01 0.01 0.01 0.01 0.01 0.00 0.01 0.01 0.03 0.02 0.01 0.01 0.02 0.02 0.02 0.03 0.04 0.03 0.02 0.02 0.01 0.02 0.02 0.02 0.03 0.03 0.04 0.05 0.05 0.14 0.12 0.03 0.03
0.03 0.02 0.01 0.01 0.01 0.00 0.01 0.01 0.02 0.02 0.02 0.01 0.00 0.01 0.01 0.01 0.00 0.00 0.01 0.01 0.02 0.02 0.02 0.03 0.03 0.04 0.04 0.03 0.02 0.01 0.02 0.02 0.03 0.03 0.05 0.05 0.06 0.04 0.10 0.25 0.18 0.04 0.03
0.03 0.03 0.02 0.01 0.01 0.00 0.00 0.00 0.01 0.01 0.02 0.01 0.01 0.00 0.00 0.00 0.00 0.00 0.01 0.01 0.02 0.03 0.03 0.02 0.03 0.04 0.04 0.03 0.03 0.03 0.03 0.04 0.03 0.04 0.04 0.06 0.08 0.07 0.11 0.18 0.17 0.07 0.03
0.02 0.04 0.03 0.02 0.01 0.01 0.00 0.00 0.00 0.01 0.02 0.02 0.01 0.00 0.00 0.00 0.00 0.00 0.00 0.01 0.01 0.02 0.02 0.03 0.04 0.05 0.04 0.03 0.03 0.04 0.04 0.05 0.06 0.05 0.05 0.05 0.08 0.07 0.07 0.10 0.11 0.08 0.05
0.01 0.01 0.02 0.02 0.02 0.01 0.01 0.00 0.00 0.00 0.01 0.02 0.02 0.01 0.01 0.00 0.01 0.01 0.01 0.00 0.01 0.02 0.02 0.03 0.02 0.05 0.05 0.03 0.03 0.04 0.05 0.05 0.06 0.06 0.05 0.04 0.05 0.06 0.06 0.07 0.07 0.08 0.08
0.00 0.01 0.01 0.01 0.01 0.01 0.01 0.01 0.00 0.00 0.01 0.01 0.02 0.02 0.01 0.00 0.00 0.01 0.00 0.01 0.01 0.01 0.01 0.01 0.01 0.03 0.05 0.04 0.03 0.03 0.04 0.04 0.04 0.05 0.04 0.03 0.03 0.04 0.05 0.06 0.05 0.05 0.05
0.01 0.01 0.01 0.00 0.00 0.01 0.00 0.00 0.00 0.00 0.00 0.00 0.01 0.01 0.01 0.00 0.00 0.00 0.00 0.01 0.01 0.01 0.01 0.01 0.01 0.03 0.04 0.05 0.04 0.03 0.03 0.04 0.03 0.04 0.04 0.03 0.02 0.03 0.03 0.04 0.05 0.04 0.03
0.01 0.02 0.01 0.00 0.00 0.00 0.00 0.00 0.00 0.00 0.00 0.01 0.01 0.02 0.01 0.00 0.01 0.00 0.01 0.01 0.01 0.01 0.01 0.02 0.01 0.01 0.02 0.03 0.03 0.03 0.03 0.04 0.04 0.03 0.04 0.04 0.03 0.02 0.02 0.03 0.03 0.03 0.03
MSLP
1013.40 1012.89 1012.37 1011.96 1011.69 1011.60 1011.64 1011.75 1011.88 1011.98 1012.03 1012.03 1012.01 1012.02 1012.08 1012.19 1012.36 1012.54 1012.71 1012.84 1012.92 1012.97 1013.00 1013.03 1013.10 1013.21 1013.35 1013.50 1013.63 1013.74 1013.81 1013.87 1013.92 1014.00 1014.12 1014.27 1014.45 1014.64 1014.79 1014.88 1014.91 1014.88 1014.80
1013.38 1012.93 1012.50 1012.18 1012.00 1011.97 1012.04 1012.14 1012.23 1012.27 1012.25 1012.21 1012.17 1012.19 1012.28 1012.44 1012.65 1012.87 1013.07 1013.21 1013.29 1013.32 1013.33 1013.34 1013.39 1013.47 1013.59 1013.71 1013.82 1013.90 1013.96 1014.00 1014.04 1014.13 1014.26 1014.43 1014.62 1014.81 1014.96 1015.04 1015.05 1015.00 1014.91
1013.24 1012.86 1012.53 1012.32 1012.25 1012.31 1012.42 1012.53 1012.59 1012.58 1012.51 1012.41 1012.35 1012.36 1012.45 1012.63 1012.87 1013.11 1013.32 1013.46 1013.54 1013.56 1013.56 1013.57 1013.61 1013.69 1013.79 1013.89 1013.98 1014.04 1014.08 1014.12 1014.16 1014.26 1014.40 1014.59 1014.80 1015.00 1015.15 1015.23 1015.24 1015.18 1015.09
1013.00 1012.69 1012.47 1012.38 1012.44 1012.58 1012.76 1012.89 1012.95 1012.91 1012.79 1012.66 1012.56 1012.55 1012.64 1012.82 1013.06 1013.30 1013.50 1013.64 1013.71 1013.73 1013.74 1013.76 1013.80 1013.89 1013.99 1014.09 1014.17 1014.22 1014.25 1014.27 1014.32 1014.42 1014.58 1014.78 1015.01 1015.22 1015.38 1015.47 1015.48 1015.43 1015.35
1012.71 1012.46 1012.34 1012.38 1012.55 1012.80 1013.05 1013.22 1013.28 1013.23 1013.10 1012.94 1012.82 1012.79 1012.86 1013.03 1013.25 1013.48 1013.67 1013.79 1013.86 1013.89 1013.91 1013.95 1014.02 1014.12 1014.24 1014.35 1014.43 1014.47 1014.49 1014.51 1014.55 1014.65 1014.82 1015.03 1015.26 1015.48 1015.64 1015.74 1015.76 1015.72 1015.65
1012.44 1012.25 1012.22 1012.36 1012.63 1012.97 1013.28 1013.49 1013.57 1013.53 1013.39 1013.22 1013.10 1013.06 1013.13 1013.29 1013.49 1013.70 1013.87 1013.99 1014.05 1014.09 1014.13 1014.19 1014.29 1014.43 1014.57 1014.69 1014.77 1014.81 1014.83 1014.83 1014.87 1014.96 1015.12 1015.33 1015.56 1015.77 1015.93 1016.03 1016.05 1016.02 1015.96
1012.28 1012.13 1012.15 1012.36 1012.71 1013.10 1013.45 1013.70 1013.80 1013.76 1013.64 1013.49 1013.38 1013.36 1013.44 1013.60 1013.79 1013.99 1014.15 1014.25 1014.31 1014.36 1014.41 1014.51 1014.64 1014.80 1014.96 1015.10 1015.19 1015.23 1015.24 1015.24 1015.26 1015.34 1015.48 1015.68 1015.89 1016.08 1016.23 1016.32 1016.34 1016.31 1016.25
1012.28 1012.14 1012.19 1012.44 1012.81 1013.22 1013.58 1013.83 1013.94 1013.91 1013.81 1013.70 1013.63 1013.65 1013.76 1013.94 1014.15 1014.34 1014.49 1014.59 1014.65 1014.70 1014.77 1014.88 1015.03 1015.21 1015.40 1015.55 1015.64 1015.69 1015.69 1015.69 1015.71 1015.77 1015.89 1016.06 1016.25 1016.42 1016.54 1016.61 1016.61 1016.58 1016.52
1012.44 1012.30 1012.36 1012.60 1012.96 1013.34 1013.67 1013.90 1013.99 1013.97 1013.90 1013.83 1013.82 1013.90 1014.06 1014.28 1014.52 1014.72 1014.88 1014.97 1015.03 1015.07 1015.14 1015.26 1015.42 1015.62 1015.81 1015.97 1016.08 1016.14 1016.15 1016.15 1016.17 1016.23 1016.34 1016.48 1016.64 1016.78 1016.88 1016.91 1016.89 1016.84 1016.76
1012.72 1012.59 1012.64 1012.85 1013.15 1013.48 1013.75 1013.92 1013.98 1013.96 1013.91 1013.89 1013.94 1014.09 1014.32 1014.59 1014.86 1015.09 1015.25 1015.35 1015.40 1015.44 1015.51 1015.62 1015.78 1015.98 1016.18 1016.35 1016.48 1016.55 1016.58 1016.60 1016.63 1016.70 1016.81 1016.94 1017.08 1017.19 1017.25 1017.26 1017.21 1017.12 1017.03
1013.08 1012.95 1012.98 1013.14 1013.38 1013.62 1013.81 1013.91 1013.93 1013.89 1013.86 1013.88 1014.00 1014.21 1014.51 1014.84 1015.15 1015.41 1015.59 1015.68 1015.73 1015.77 1015.83 1015.93 1016.09 1016.28 1016.49 1016.68 1016.82 1016.92 1016.99 1017.04 1017.10 1017.19 1017.30 1017.43 1017.56 1017.65 1017.69 1017.66 1017.59 1017.48 1017.36
1013.43 1013.32 1013.33 1013.45 1013.62 1013.78 1013.89 1013.92 1013.88 1013.82 1013.80 1013.85 1014.01 1014.28 1014.63 1015.01 1015.36 1015.65 1015.85 1015.96 1016.01 1016.04 1016.10 1016.20 1016.36 1016.55 1016.77 1016.97 1017.14 1017.28 1017.38 1017.48 1017.57 1017.69 1017.83 1017.96 1018.09 1018.17 1018.19 1018.15 1018.05 1017.92 1017.77
1013.72 1013.63 1013.64 1013.74 1013.86 1013.96 1013.99 1013.96 1013.88 1013.80 1013.77 1013.85 1014.04 1014.34 1014.72 1015.13 1015.51 1015.82 1016.03 1016.16 1016.23 1016.28 1016.35 1016.46 1016.63 1016.83 1017.06 1017.28 1017.49 1017.66 1017.80 1017.94 1018.08 1018.22 1018.38 1018.53 1018.66 1018.73 1018.75 1018.70 1018.59 1018.44 1018.29
1013.90 1013.86 1013.89 1013.99 1014.08 1014.14 1014.13 1014.07 1013.96 1013.87 1013.84 1013.91 1014.11 1014.42 1014.80 1015.22 1015.61 1015.93 1016.17 1016.32 1016.43 1016.51 1016.61 1016.75 1016.94 1017.17 1017.42 1017.67 1017.90 1018.10 1018.28 1018.45 1018.62 1018.79 1018.96 1019.12 1019.24 1019.32 1019.33 1019.28 1019.17 1019.03 1018.87
1014.00 1014.00 1014.07 1014.18 1014.28 1014.33 1014.32 1014.25 1014.15 1014.05 1014.02 1014.09 1014.27 1014.55 1014.92 1015.31 1015.69 1016.01 1016.27 1016.47 1016.62 1016.76 1016.91 1017.10 1017.33 1017.60 1017.88 1018.15 1018.40 1018.63 1018.83 1019.01 1019.19 1019.36 1019.54 1019.69 1019.82 1019.89 1019.91 1019.86 1019.76 1019.63 1019.47
1014.04 1014.09 1014.20 1014.33 1014.46 1014.54 1014.56 1014.51 1014.44 1014.36 1014.33 1014.38 1014.53 1014.77 1015.08 1015.43 1015.77 1016.09 1016.37 1016.60 1016.82 1017.03 1017.25 1017.51 1017.80 1018.11 1018.42 1018.72 1018.98 1019.22 1019.42 1019.60 1019.77 1019.94 1020.09 1020.23 1020.34 1020.42 1020.44 1020.40 1020.32 1020.20 1020.06
1014.10 1014.17 1014.30 1014.47 1014.63 1014.75 1014.82 1014.84 1014.81 1014.77 1014.75 1014.79 1014.89 1015.07 1015.30 1015.58 1015.88 1016.18 1016.47 1016.74 1017.02 1017.31 1017.61 1017.94 1018.29 1018.65 1018.99 1019.31 1019.58 1019.81 1020.01 1020.18 1020.32 1020.46 1020.60 1020.71 1020.81 1020.88 1020.90 1020.88 1020.81 1020.72 1020.60
1014.22 1014.29 1014.43 1014.61 1014.80 1014.97 1015.10 1015.19 1015.23 1015.24 1015.24 1015.26 1015.32 1015.42 1015.58 1015.78 1016.02 1016.29 1016.58 1016.89 1017.22 1017.57 1017.95 1018.35 1018.75 1019.15 1019.52 1019.84 1020.12 1020.35 1020.53 1020.68 1020.81 1020.92 1021.03 1021.13 1021.22 1021.28 1021.31 1021.30 1021.27 1021.20 1021.10
1014.43 1014.48 1014.59 1014.76 1014.96 1015.17 1015.37 1015.53 1015.64 1015.71 1015.75 1015.76 1015.78 1015.82 1015.90 1016.02 1016.19 1016.42 1016.70 1017.02 1017.39 1017.80 1018.23 1018.68 1019.12 1019.55 1019.93 1020.26 1020.53 1020.76 1020.93 1021.07 1021.19 1021.30 1021.40 1021.49 1021.58 1021.64 1021.69 1021.71 1021.70 1021.66 1021.59
1014.73 1014.73 1014.79 1014.92 1015.11 1015.35 1015.60 1015.83 1016.02 1016.16 1016.24 1016.26 1016.26 1016.24 1016.25 1016.30 1016.40 1016.58 1016.84 1017.16 1017.55 1017.98 1018.44 1018.91 1019.36 1019.79 1020.17 1020.50 1020.78 1021.00 1021.18 1021.33 1021.46 1021.58 1021.70 1021.81 1021.91 1022.01 1022.08 1022.14 1022.16 1022.15 1022.10
1015.09 1015.03 1015.02 1015.09 1015.25 1015.49 1015.78 1016.08 1016.34 1016.55 1016.68 1016.73 1016.72 1016.67 1016.63 1016.61 1016.66 1016.79 1017.02 1017.32 1017.70 1018.13 1018.58 1019.04 1019.48 1019.89 1020.26 1020.57 1020.85 1021.08 1021.29 1021.47 1021.63 1021.79 1021.95 1022.10 1022.25 1022.38 1022.50 1022.59 1022.65 1022.67 1022.64
1015.45 1015.32 1015.24 1015.25 1015.37 1015.60 1015.91 1016.26 1016.60 1016.88 1017.07 1017.15 1017.16 1017.10 1017.03 1016.97 1016.98 1017.07 1017.26 1017.53 1017.88 1018.28 1018.70 1019.12 1019.52 1019.89 1020.22 1020.52 1020.79 1021.04 1021.28 1021.51 1021.73 1021.94 1022.16 1022.37 1022.57 1022.76 1022.93 1023.07 1023.17 1023.22 1023.22
1015.75 1015.58 1015.43 1015.38 1015.47 1015.68 1016.01 1016.40 1016.80 1017.14 1017.40 1017.53 1017.57 1017.53 1017.45 1017.38 1017.37 1017.43 1017.59 1017.83 1018.13 1018.48 1018.84 1019.20 1019.54 1019.85 1020.14 1020.41 1020.68 1020.94 1021.21 1021.49 1021.77 1022.05 1022.33 1022.61 1022.87 1023.12 1023.34 1023.52 1023.66 1023.75 1023.77
1015.95 1015.76 1015.59 1015.50 1015.55 1015.76 1016.10 1016.52 1016.97 1017.37 1017.68 1017.88 1017.96 1017.95 1017.89 1017.83 1017.81 1017.87 1018.00 1018.21 1018.47 1018.77 1019.07 1019.36 1019.62 1019.87 1020.11 1020.34 1020.59 1020.86 1021.15 1021.47 1021.79 1022.13 1022.47 1022.79 1023.10 1023.40 1023.66 1023.88 1024.06 1024.18 1024.24
1016.04 1015.87 1015.69 1015.60 1015.64 1015.84 1016.20 1016.65 1017.13 1017.58 1017.94 1018.19 1018.31 1018.34 1018.32 1018.28 1018.29 1018.35 1018.48 1018.67 1018.90 1019.15 1019.39 1019.62 1019.82 1020.00 1020.18 1020.37 1020.60 1020.85 1021.15 1021.48 1021.83 1022.19 1022.55 1022.90 1023.24 1023.56 1023.84 1024.10 1024.31 1024.46 1024.55
1016.01 1015.89 1015.75 1015.68 1015.74 1015.96 1016.32 1016.79 1017.29 1017.77 1018.17 1018.45 1018.61 1018.68 1018.70 1018.71 1018.74 1018.83 1018.97 1019.17 1019.39 1019.61 1019.81 1019.99 1020.13 1020.26 1020.39 1020.54 1020.73 1020.96 1021.24 1021.55 1021.89 1022.24 1022.59 1022.93 1023.26 1023.58 1023.87 1024.14 1024.37 1024.55 1024.67
Thickness
5772 5772 5771 5771 5771 5770 5769 5769 5769 5769 5768 5768 5768 5767 5767 5766 5765 5765 5764 5764 5764 5765 5765 5766 5766 5766 5767 5767 5767 5767 5768 5768 5768 5769 5769 5769 5769 5770 5770 5770 5771 5771 5772
5773 5771 5769 5769 5768 5768 5767 5767 5766 5766 5766 5766 5765 5764 5764 5763 5762 5762 5762 5762 5762 5762 5762 5763 5763 5763 5763 5764 5764 5765 5765 5766 5766 5767 5767 5767 5767 5768 5768 5768 5769 5769 5769
5773 5770 5768 5767 5766 5765 5765 5764 5764 5764 5763 5763 5762 5762 5761 5760 5759 5759 5759 5759 5759 5759 5759 5759 5760 5760 5760 5761 5761 5762 5763 5763 5764 5765 5765 5765 5765 5765 5765 5766 5766 5767 5767
5772 5768 5766 5764 5764 5763 5763 5763 5762 5761 5761 5760 5760 5759 5758 5757 5756 5756 5756 5756 5757 5756 5756 5756 5756 5757 5757 5757 5758 5758 5759 5761 5762 5762 5763 5763 5763 5762 5763 5763 5764 5764 5764
5770 5766 5763 5762 5761 5761 5761 5760 5759 5759 5758 5757 5757 5756 5755 5754 5753 5753 5753 5754 5754 5753 5753 5753 5752 5753 5753 5754 5754 5755 5756 5758 5759 5759 5759 5759 5759 5759 5760 5760 5761 5762 5762
5767 5764 5761 5760 5759 5758 5758 5758 5757 5756 5756 5755 5754 5753 5752 5751 5751 5750 5751 5751 5750 5750 5750 5750 5750 5750 5750 5751 5751 5752 5754 5755 5756 5756 5756 5755 5755 5756 5756 5757 5758 5758 5758
5764 5762 5759 5758 5757 5756 5755 5755 5755 5754 5753 5752 5751 5750 5749 5748 5748 5748 5748 5747 5747 5747 5747 5747 5746 5747 5747 5748 5748 5749 5751 5752 5753 5753 5752 5752 5752 5752 5753 5754 5754 5754 5754
5763 5760 5757 5755 5755 5754 5753 5752 5752 5752 5750 5749 5748 5747 5746 5746 5745 5745 5745 5745 5744 5744 5744 5743 5743 5744 5744 5745 5745 5746 5748 5749 5750 5749 5748 5748 5748 5748 5749 5750 5750 5751 5751
5760 5758 5756 5754 5753 5751 5750 5750 5749 5748 5747 5747 5745 5744 5744 5743 5742 5742 5742 5742 5742 5741 5741 5740 5740 5740 5741 5741 5742 5743 5744 5745 5745 5745 5745 5744 5744 5744 5745 5746 5747 5746 5747
5756 5756 5755 5754 5753 5751 5748 5747 5747 5746 5745 5744 5743 5742 5741 5741 5740 5739 5739 5739 5739 5738 5738 5738 5738 5738 5738 5738 5739 5740 5741 5741 5741 5740 5739 5739 5739 5740 5741 5742 5742 5742 5742
5751 5752 5753 5752 5751 5750 5748 5746 5744 5743 5742 5741 5741 5740 5739 5739 5738 5737 5736 5736 5735 5735 5735 5735 5735 5735 5735 5735 5736 5737 5737 5737 5736 5735 5734 5735 5735 5736 5737 5737 5737 5738 5738
5745 5748 5750 5749 5749 5748 5747 5744 5742 5741 5740 5740 5739 5738 5738 5737 5736 5734 5733 5733 5732 5732 5733 5733 5732 5732 5732 5733 5733 5733 5733 5732 5732 5730 5730 5730 5731 5732 5732 5733 5733 5733 5734
5744 5745 5746 5747 5746 5744 5743 5741 5740 5739 5738 5738 5737 5736 5735 5734 5733 5732 5730 5729 5729 5729 5730 5730 5730 5730 5730 5730 5730 5730 5729 5728 5727 5726 5725 5726 5727 5727 5728 5729 5729 5729 5729
5741 5741 5743 5745 5743 5741 5739 5738 5737 5736 5736 5735 5735 5734 5733 5731 5731 5729 5728 5727 5727 5727 5727 5727 5727 5727 5727 5727 5727 5726 5725 5724 5722 5721 5721 5722 5723 5723 5724 5724 5725 5725 5725
5738 5738 5740 5741 5739 5738 5736 5735 5735 5733 5733 5732 5731 5731 5730 5729 5728 5726 5726 5725 5724 5724 5724 5723 5723 5722 5722 5722 5722 5721 5721 5721 5719 5718 5717 5718 5718 5719 5720 5720 5721 5721 5721
5736 5735 5736 5737 5736 5735 5733 5732 5730 5730 5729 5729 5728 5727 5727 5726 5725 5724 5722 5722 5721 5721 5721 5720 5719 5718 5718 5718 5717 5718 5717 5717 5716 5715 5714 5714 5714 5715 5715 5716 5717 5717 5717
5735 5734 5733 5733 5732 5731 5729 5728 5727 5726 5725 5724 5724 5724 5724 5723 5723 5721 5719 5718 5718 5717 5717 5716 5715 5715 5714 5713 5713 5713 5713 5714 5713 5713 5712 5711 5711 5711 5711 5711 5712 5712 5712
5734 5732 5730 5730 5728 5726 5725 5724 5723 5723 5722 5721 5720 5720 5720 5720 5719 5718 5716 5714 5714 5714 5713 5712 5711 5710 5709 5708 5708 5709 5709 5710 5710 5710 5710 5708 5708 5707 5706 5706 5707 5707 5708
5733 5730 5727 5726 5724 5722 5721 5720 5720 5719 5718 5717 5716 5716 5716 5716 5716 5714 5713 5712 5711 5710 5709 5709 5707 5706 5704 5703 5704 5705 5705 5706 5706 5707 5706 5706 5705 5704 5703 5702 5703 5703 5704
5732 5730 5725 5722 5721 5719 5718 5717 5716 5715 5714 5713 5713 5712 5712 5712 5712 5711 5710 5709 5708 5706 5705 5704 5703 5703 5701 5701 5702 5701 5701 5702 5702 5702 5702 5702 5702 5701 5700 5699 5700 5699 5699
5730 5727 5723 5720 5719 5717 5714 5712 5710 5708 5709 5709 5710 5709 5709 5709 5709 5709 5708 5706 5705 5703 5702 5701 5700 5699 5698 5699 5696 5693 5695 5698 5697 5697 5698 5698 5697 5697 5697 5697 5697 5696 5694
5727 5725 5722 5720 5718 5715 5713 5712 5711 5708 5707 5707 5707 5707 5706 5707 5707 5706 5705 5703 5702 5700 5699 5698 5697 5695 5695 5697 5693 5689 5684 5685 5690 5693 5694 5693 5692 5692 5693 5693 5692 5691 5690
5725 5724 5722 5720 5717 5715 5713 5711 5709 5707 5705 5704 5703 5703 5704 5704 5704 5703 5703 5702 5700 5699 5696 5696 5695 5693 5691 5693 5694 5689 5683 5678 5681 5685 5688 5688 5688 5688 5688 5688 5688 5687 5687
5725 5724 5722 5720 5717 5714 5712 5709 5705 5702 5699 5701 5701 5702 5703 5703 5702 5701 5701 5700 5699 5698 5696 5695 5694 5693 5691 5688 5691 5693 5691 5688 5681 5676 5680 5683 5684 5683 5684 5684 5684 5683 5682
5726 5723 5721 5719 5716 5713 5711 5708 5705 5703 5702 5702 5702 5701 5700 5700 5700 5699 5698 5698 5697 5696 5695 5694 5693 5692 5691 5688 5688 5688 5688 5688 5687 5679 5672 5675 5677 5679 5679 5680 5679 5678 5677
5725 5722 5719 5716 5713 5712 5710 5708 5706 5703 5702 5700 5698 5698 5697 5698 5698 5698 5697 5696 5695 5694 5693 5692 5691 5690 5689 5688 5687 5687 5684 5682 5680 5679 5674 5672 5671 5673 5675 5676 5675 5674 5673